| time (UTC) | temp F | wind direction | speed MPH | gust MPH | rain 1hr in | rain 24hr in | rain mn in | humidity % | barometer mb |
| 20260901170124 | 93 | 165 | 3.0 | 7.0 | 0.00 | 0.00 | 0.00 | 50 | 1015.3 |
| 20260901165126 | 92 | 190 | 4.0 | 8.0 | 0.00 | 0.00 | 0.00 | 50 | 1015.5 |
| 20260901164122 | 92 | 218 | 3.0 | 12.0 | 0.00 | 0.00 | 0.00 | 50 | 1015.5 |
| 20260901163122 | 92 | 154 | 3.0 | 7.0 | 0.00 | 0.00 | 0.00 | 51 | 1015.5 |
| 20260901162122 | 91 | 182 | 2.0 | 6.0 | 0.00 | 0.00 | 0.00 | 53 | 1015.5 |
| 20260901161122 | 90 | 214 | 4.0 | 8.0 | 0.00 | 0.00 | 0.00 | 53 | 1015.5 |
| 20260901160125 | 90 | 265 | 3.0 | 8.0 | 0.00 | 0.00 | 0.00 | 54 | 1015.6 |
| 20260901155123 | 89 | 221 | 5.0 | 9.0 | 0.00 | 0.00 | 0.00 | 55 | 1015.6 |
| 20260901154558 | 89 | 153 | 4.0 | 9.0 | 0.00 | 0.00 | 0.00 | 56 | 1015.5 |
| 20260901153117 | 88 | 190 | 2.0 | 5.0 | 0.00 | 0.00 | 0.00 | 57 | 1015.5 |
| 20260901152640 | 88 | 178 | 3.0 | 8.0 | 0.00 | 0.00 | 0.00 | 58 | 1015.5 |
| 20260901152528 | 87 | 182 | 4.0 | 8.0 | 0.00 | 0.00 | 0.00 | 58 | 1015.6 |
| 20260901150116 | 87 | 163 | 5.0 | 10.0 | 0.00 | 0.00 | 0.00 | 59 | 1015.6 |
| 20260901145115 | 87 | 182 | 5.0 | 10.0 | 0.00 | 0.00 | 0.00 | 59 | 1015.6 |
| 20260901144115 | 86 | 199 | 5.0 | 9.0 | 0.00 | 0.00 | 0.00 | 60 | 1015.6 |
| 20260901143558 | 86 | 165 | 2.0 | 8.0 | 0.00 | 0.00 | 0.00 | 60 | 1015.7 |
| 20260901142113 | 85 | 147 | 2.0 | 6.0 | 0.00 | 0.00 | 0.00 | 61 | 1015.7 |
| 20260901141118 | 85 | 149 | 2.0 | 6.0 | 0.00 | 0.00 | 0.00 | 61 | 1015.7 |
| 20260901140555 | 85 | 184 | 3.0 | 7.0 | 0.00 | 0.00 | 0.00 | 62 | 1015.7 |
| 20260901135109 | 84 | 189 | 2.0 | 7.0 | 0.00 | 0.00 | 0.00 | 62 | 1015.7 |
| 20260901134541 | 84 | 178 | 1.0 | 5.0 | 0.00 | 0.00 | 0.00 | 63 | 1015.5 |
| 20260901133109 | 83 | 154 | 1.0 | 4.0 | 0.00 | 0.00 | 0.00 | 63 | 1015.4 |
| 20260901132108 | 83 | 106 | 0.0 | 2.0 | 0.00 | 0.00 | 0.00 | 64 | 1015.5 |
| 20260901131111 | 82 | 144 | 1.0 | 2.0 | 0.00 | 0.00 | 0.00 | 65 | 1015.4 |
| 20260901130108 | 81 | 177 | 0.0 | 2.0 | 0.00 | 0.00 | 0.00 | 67 | 1015.3 |
| 20260901125108 | 80 | 177 | 0.0 | 0.0 | 0.00 | 0.00 | 0.00 | 68 | 1015.0 |
| 20260901124110 | 79 | 177 | 0.0 | 2.0 | 0.00 | 0.00 | 0.00 | 68 | 1014.9 |
| 20260901123106 | 79 | 177 | 1.0 | 3.0 | 0.00 | 0.00 | 0.00 | 68 | 1014.7 |
| 20260901122107 | 79 | 177 | 1.0 | 3.0 | 0.00 | 0.00 | 0.00 | 68 | 1014.6 |
| 20260901121546 | 79 | 177 | 0.0 | 2.0 | 0.00 | 0.00 | 0.00 | 68 | 1014.6 |
| 20260901120545 | 79 | 177 | 0.0 | 0.0 | 0.00 | 0.00 | 0.00 | 67 | 1014.5 |
| 20260901115106 | 79 | 177 | 0.0 | 0.0 | 0.00 | 0.00 | 0.00 | 66 | 1014.6 |
| 20260901114547 | 80 | 177 | 1.0 | 3.0 | 0.00 | 0.00 | 0.00 | 65 | 1014.5 |
| 20260901113544 | 80 | 177 | 2.0 | 4.0 | 0.00 | 0.00 | 0.00 | 65 | 1014.4 |
| 20260901112552 | 80 | 177 | 2.0 | 4.0 | 0.00 | 0.00 | 0.00 | 65 | 1014.4 |
| 20260901111545 | 80 | 177 | 3.0 | 5.0 | 0.00 | 0.00 | 0.00 | 64 | 1014.4 |
| 20260901105102 | 80 | 219 | 3.0 | 5.0 | 0.00 | 0.00 | 0.00 | 64 | 1014.3 |
| 20260901104104 | 81 | 193 | 3.0 | 5.0 | 0.00 | 0.00 | 0.00 | 64 | 1014.3 |
| 20260901103101 | 81 | 203 | 4.0 | 6.0 | 0.00 | 0.00 | 0.00 | 63 | 1014.3 |
| 20260901102102 | 81 | 197 | 4.0 | 7.0 | 0.00 | 0.00 | 0.00 | 63 | 1014.2 |
| 20260901101102 | 82 | 202 | 4.0 | 7.0 | 0.00 | 0.00 | 0.00 | 62 | 1014.2 |
| 20260901100549 | 82 | 153 | 3.0 | 7.0 | 0.00 | 0.00 | 0.00 | 62 | 1014.2 |
| 20260901095106 | 82 | 169 | 4.0 | 9.0 | 0.00 | 0.00 | 0.00 | 62 | 1014.2 |
| 20260901094058 | 83 | 200 | 4.0 | 9.0 | 0.00 | 0.00 | 0.00 | 61 | 1014.3 |
| 20260901093549 | 83 | 158 | 4.0 | 10.0 | 0.00 | 0.00 | 0.00 | 61 | 1014.4 |
| 20260901092058 | 83 | 154 | 4.0 | 7.0 | 0.00 | 0.00 | 0.00 | 60 | 1014.4 |
| 20260901091057 | 83 | 153 | 4.0 | 10.0 | 0.00 | 0.00 | 0.00 | 59 | 1014.4 |
| 20260901090057 | 83 | 157 | 5.0 | 8.0 | 0.00 | 0.00 | 0.00 | 59 | 1014.3 |
| 20260901085057 | 83 | 155 | 5.0 | 11.0 | 0.00 | 0.00 | 0.00 | 59 | 1014.2 |
| 20260901084056 | 83 | 173 | 4.0 | 9.0 | 0.00 | 0.00 | 0.00 | 58 | 1014.2 |
| 20260901083519 | 84 | 159 | 4.0 | 11.0 | 0.00 | 0.00 | 0.00 | 55 | 1014.1 |
| 20260901083144 | 83 | 178 | 4.0 | 9.0 | 0.00 | 0.00 | 0.00 | 56 | 1014.1 |
| 20260901081052 | 84 | 187 | 4.0 | 9.0 | 0.00 | 0.00 | 0.00 | 54 | 1014.1 |
| 20260901080053 | 83 | 184 | 3.0 | 6.0 | 0.00 | 0.00 | 0.00 | 54 | 1013.9 |
| 20260901075051 | 83 | 165 | 1.0 | 5.0 | 0.00 | 0.00 | 0.00 | 53 | 1014.0 |
| 20260901074050 | 83 | 82 | 0.0 | 1.0 | 0.00 | 0.00 | 0.00 | 52 | 1014.0 |
| 20260901073051 | 83 | 82 | 0.0 | 0.0 | 0.00 | 0.00 | 0.00 | 51 | 1013.9 |
| 20260901072051 | 83 | 82 | 0.0 | 1.0 | 0.00 | 0.00 | 0.00 | 51 | 1013.9 |
| 20260901071055 | 83 | 82 | 0.0 | 1.0 | 0.00 | 0.00 | 0.00 | 51 | 1013.8 |
| 20260901070051 | 83 | 82 | 0.0 | 2.0 | 0.00 | 0.00 | 0.00 | 51 | 1013.8 |
| 20260901065536 | 83 | 82 | 0.0 | 2.0 | 0.00 | 0.00 | 0.00 | 50 | 1013.8 |
| 20260901064049 | 83 | 82 | 0.0 | 2.0 | 0.00 | 0.00 | 0.00 | 49 | 1013.7 |
| 20260901063048 | 84 | 82 | 1.0 | 4.0 | 0.00 | 0.00 | 0.00 | 49 | 1013.7 |
| 20260901062050 | 84 | 92 | 0.0 | 0.0 | 0.00 | 0.00 | 0.00 | 47 | 1013.6 |
| 20260901061050 | 85 | 92 | 0.0 | 2.0 | 0.00 | 0.00 | 0.00 | 47 | 1013.4 |
| 20260901060048 | 85 | 92 | 0.0 | 1.0 | 0.00 | 0.00 | 0.00 | 47 | 1013.4 |
| 20260901055048 | 85 | 92 | 0.0 | 0.0 | 0.00 | 0.00 | 0.00 | 47 | 1013.3 |
| 20260901054048 | 84 | 92 | 0.0 | 2.0 | 0.00 | 0.00 | 0.00 | 47 | 1013.2 |
| 20260901053048 | 84 | 92 | 0.0 | 1.0 | 0.00 | 0.00 | 0.00 | 48 | 1013.2 |
| 20260901052544 | 84 | 92 | 0.0 | 1.0 | 0.00 | 0.00 | 0.00 | 48 | 1013.1 |
| 20260901051047 | 84 | 92 | 0.0 | 1.0 | 0.00 | 0.00 | 0.00 | 48 | 1013.0 |
| 20260901050046 | 83 | 92 | 0.0 | 2.0 | 0.00 | 0.00 | 0.00 | 48 | 1013.0 |
| 20260901050012 | 84 | 92 | 0.0 | 0.0 | 0.00 | 0.00 | 0.00 | 47 | 1012.9 |
| 20260901044045 | 85 | 92 | 0.0 | 0.0 | 0.00 | 0.00 | 0.00 | 46 | 1012.9 |
| 20260901043049 | 85 | 92 | 0.0 | 1.0 | 0.00 | 0.00 | 0.00 | 46 | 1012.9 |
| 20260901042044 | 86 | 92 | 0.0 | 1.0 | 0.00 | 0.00 | 0.00 | 45 | 1012.8 |
| 20260901041044 | 87 | 92 | 0.0 | 2.0 | 0.00 | 0.00 | 0.00 | 44 | 1012.9 |
| 20260901040048 | 87 | 92 | 1.0 | 3.0 | 0.00 | 0.00 | 0.00 | 44 | 1012.9 |
| 20260901035522 | 88 | 142 | 0.0 | 2.0 | 0.00 | 0.00 | 0.00 | 44 | 1012.9 |
| 20260901034042 | 88 | 142 | 0.0 | 1.0 | 0.00 | 0.00 | 0.00 | 44 | 1012.9 |
| 20260901033038 | 88 | 142 | 0.0 | 1.0 | 0.00 | 0.00 | 0.00 | 43 | 1012.9 |
| 20260901032038 | 88 | 142 | 0.0 | 1.0 | 0.00 | 0.00 | 0.00 | 44 | 1012.8 |
| 20260901031037 | 88 | 142 | 0.0 | 2.0 | 0.00 | 0.00 | 0.00 | 44 | 1012.8 |
| 20260901030038 | 89 | 142 | 0.0 | 1.0 | 0.00 | 0.00 | 0.00 | 43 | 1012.7 |
| 20260901025039 | 89 | 142 | 0.0 | 0.0 | 0.00 | 0.00 | 0.00 | 43 | 1012.6 |
| 20260901024039 | 90 | 142 | 0.0 | 1.0 | 0.00 | 0.00 | 0.00 | 42 | 1012.5 |
| 20260901024004 | 90 | 142 | 0.0 | 1.0 | 0.00 | 0.00 | 0.00 | 41 | 1012.4 |
| 20260901022033 | 91 | 142 | 0.0 | 1.0 | 0.00 | 0.00 | 0.00 | 41 | 1012.4 |
| 20260901021034 | 91 | 142 | 0.0 | 0.0 | 0.00 | 0.00 | 0.00 | 40 | 1012.1 |
| 20260901020032 | 92 | 142 | 0.0 | 2.0 | 0.00 | 0.00 | 0.00 | 40 | 1012.1 |
| 20260901015033 | 92 | 142 | 1.0 | 4.0 | 0.00 | 0.00 | 0.00 | 39 | 1012.0 |
| 20260901014513 | 93 | 123 | 0.0 | 1.0 | 0.00 | 0.00 | 0.00 | 39 | 1011.9 |
| 20260901013032 | 93 | 117 | 0.0 | 2.0 | 0.00 | 0.00 | 0.00 | 38 | 1011.9 |
| 20260901012032 | 94 | 174 | 1.0 | 3.0 | 0.00 | 0.00 | 0.00 | 38 | 1011.7 |
| 20260901011033 | 94 | 173 | 1.0 | 4.0 | 0.00 | 0.00 | 0.00 | 37 | 1011.6 |
| 20260901010511 | 94 | 148 | 2.0 | 6.0 | 0.00 | 0.00 | 0.00 | 37 | 1011.6 |
| 20260901005027 | 95 | 163 | 2.0 | 6.0 | 0.00 | 0.00 | 0.00 | 36 | 1011.7 |
| 20260901004028 | 95 | 136 | 2.0 | 10.0 | 0.00 | 0.00 | 0.00 | 36 | 1011.6 |
| 20260901003028 | 96 | 153 | 2.0 | 11.0 | 0.00 | 0.00 | 0.00 | 36 | 1011.6 |
| 20260901002027 | 96 | 163 | 2.0 | 7.0 | 0.00 | 0.00 | 0.00 | 35 | 1011.6 |
| 20260901001026 | 97 | 131 | 2.0 | 8.0 | 0.00 | 0.00 | 0.00 | 35 | 1011.5 |
| 20260901000026 | 97 | 152 | 3.0 | 10.0 | 0.00 | 0.00 | 0.00 | 34 | 1011.6 |
| 20260831235026 | 98 | 161 | 2.0 | 7.0 | 0.00 | 0.00 | 0.00 | 34 | 1011.6 |
| 20260831234026 | 98 | 106 | 3.0 | 9.0 | 0.00 | 0.00 | 0.00 | 33 | 1011.6 |
| 20260831233027 | 98 | 134 | 3.0 | 12.0 | 0.00 | 0.00 | 0.00 | 33 | 1011.5 |
| 20260831232022 | 98 | 179 | 3.0 | 8.0 | 0.00 | 0.00 | 0.00 | 33 | 1011.6 |
| 20260831231025 | 99 | 98 | 3.0 | 14.0 | 0.00 | 0.00 | 0.00 | 33 | 1011.5 |
| 20260831230021 | 100 | 85 | 5.0 | 12.0 | 0.00 | 0.00 | 0.00 | 33 | 1011.6 |
| 20260831225020 | 99 | 165 | 6.0 | 11.0 | 0.00 | 0.00 | 0.00 | 32 | 1011.6 |
| 20260831224021 | 99 | 121 | 2.0 | 7.0 | 0.00 | 0.00 | 0.00 | 32 | 1011.6 |
| 20260831223020 | 99 | 122 | 5.0 | 12.0 | 0.00 | 0.00 | 0.00 | 32 | 1011.8 |
| 20260831222025 | 99 | 158 | 6.0 | 12.0 | 0.00 | 0.00 | 0.00 | 32 | 1011.8 |
| 20260831221501 | 99 | 165 | 6.0 | 15.0 | 0.00 | 0.00 | 0.00 | 34 | 1011.9 |
| 20260831220933 | 100 | 167 | 5.0 | 16.0 | 0.00 | 0.00 | 0.00 | 32 | 1011.9 |
| 20260831215015 | 99 | 22 | 3.0 | 10.0 | 0.00 | 0.00 | 0.00 | 33 | 1012.1 |
| 20260831214016 | 98 | 169 | 2.0 | 9.0 | 0.00 | 0.00 | 0.00 | 35 | 1012.1 |
| 20260831213014 | 99 | 102 | 3.0 | 9.0 | 0.00 | 0.00 | 0.00 | 33 | 1012.3 |
| 20260831212015 | 99 | 151 | 3.0 | 9.0 | 0.00 | 0.00 | 0.00 | 33 | 1012.3 |
| 20260831211016 | 100 | 65 | 4.0 | 11.0 | 0.00 | 0.00 | 0.00 | 33 | 1012.2 |
| 20260831210449 | 99 | 180 | 7.0 | 16.0 | 0.00 | 0.00 | 0.00 | 32 | 1012.4 |
| 20260831205015 | 99 | 174 | 7.0 | 18.0 | 0.00 | 0.00 | 0.00 | 32 | 1012.6 |
| 20260831204016 | 98 | 167 | 3.0 | 12.0 | 0.00 | 0.00 | 0.00 | 33 | 1012.8 |
| 20260831203018 | 98 | 167 | 6.0 | 15.0 | 0.00 | 0.00 | 0.00 | 33 | 1013.0 |
| 20260831202009 | 97 | 84 | 3.0 | 12.0 | 0.00 | 0.00 | 0.00 | 35 | 1013.1 |
| 20260831201449 | 97 | 100 | 3.0 | 7.0 | 0.00 | 0.00 | 0.00 | 37 | 1013.1 |
| 20260831200443 | 98 | 110 | 4.0 | 12.0 | 0.00 | 0.00 | 0.00 | 36 | 1013.3 |
| 20260831195008 | 96 | 82 | 3.0 | 10.0 | 0.00 | 0.00 | 0.00 | 37 | 1013.3 |
| 20260831194009 | 97 | 107 | 5.0 | 16.0 | 0.00 | 0.00 | 0.00 | 36 | 1013.5 |
| 20260831193009 | 96 | 157 | 6.0 | 15.0 | 0.00 | 0.00 | 0.00 | 36 | 1013.7 |
| 20260831192008 | 96 | 172 | 4.0 | 11.0 | 0.00 | 0.00 | 0.00 | 35 | 1013.7 |
| 20260831191008 | 97 | 202 | 6.0 | 13.0 | 0.00 | 0.00 | 0.00 | 35 | 1013.8 |
| 20260831190010 | 95 | 157 | 6.0 | 12.0 | 0.00 | 0.00 | 0.00 | 36 | 1013.9 |
| 20260831185004 | 96 | 179 | 8.0 | 19.0 | 0.00 | 0.00 | 0.00 | 37 | 1014.1 |
| 20260831184501 | 96 | 161 | 5.0 | 11.0 | 0.00 | 0.00 | 0.00 | 37 | 1014.1 |
| 20260831183004 | 97 | 159 | 8.0 | 18.0 | 0.00 | 0.00 | 0.00 | 37 | 1014.2 |
| 20260831182002 | 97 | 183 | 5.0 | 16.0 | 0.00 | 0.00 | 0.00 | 37 | 1014.4 |
| 20260831181004 | 96 | 145 | 5.0 | 16.0 | 0.00 | 0.00 | 0.00 | 39 | 1014.5 |
| 20260831180002 | 95 | 181 | 6.0 | 15.0 | 0.00 | 0.00 | 0.00 | 39 | 1014.8 |
| 20260831175005 | 96 | 165 | 8.0 | 16.0 | 0.00 | 0.00 | 0.00 | 39 | 1014.9 |
| 20260831174003 | 96 | 177 | 7.0 | 17.0 | 0.00 | 0.00 | 0.00 | 37 | 1015.1 |
| 20260831173004 | 95 | 148 | 4.0 | 10.0 | 0.00 | 0.00 | 0.00 | 40 | 1015.3 |
| 20260831171958 | 94 | 180 | 6.0 | 11.0 | 0.00 | 0.00 | 0.00 | 42 | 1015.4 |
| 20260831170956 | 93 | 193 | 6.0 | 13.0 | 0.00 | 0.00 | 0.00 | 41 | 1015.4 |